Regional Weather Roundup
Issued by NWS

Home | Current Version | Previous Version | Text Only | Print | Product List | Glossary On
Versions: 1 2 3 4 5 6 7 8 9 10 11 12 13 14 15 16 17 18 19 20 21 22 23 24 25 26 27 28 29 30 31 32 33 34 35 36 37 38 39 40 41 42 43 44 45 46 47 48 49 50
000
ASUS43 KDTX 200401
RWRMI
MICHIGAN HOURLY REGIONAL WEATHER ROUNDUP
NATIONAL WEATHER SERVICE DETROIT/PONTIAC MI
1100 PM EST MON FEB 19 2018

NOTE: "FAIR" INDICATES FEW OR NO CLOUDS BELOW 12,000 FEET WITH NO
SIGNIFICANT WEATHER AND/OR OBSTRUCTION TO VISIBILITY.

MIZ047>049-052>055-059>063-066>070-074>076-081>083-200500-
SOUTHEAST LOWER MICHIGAN

CITY           SKY/WX    TMP DP  RH WIND       PRES   REMARKS
ADRIAN         FAIR      51  51 100 SW5       29.97R
ALMA           LGT RAIN  37  37 100 NE3       29.91S
ANN ARBOR      FOG       48  48 100 S5        29.96R VSB 1/2
BAD AXE        LGT SNOW  37  37 100 E5        29.94S WCI  33
CARO           DRIZZLE   39  39 100 CALM      29.92F
DETROIT CITY   FAIR      57  54  89 SW13      29.96R
DETROIT        CLOUDY    56  53  90 SW10      29.97R
FLINT          CLOUDY    51  51 100 S7        29.91F
GROSSE ILE     FOG       45  44  97 S6        29.97R VSB 1/4
HILLSDALE      LGT RAIN  55  52  88 SW7       29.95F
HOWELL         CLOUDY    56  53  90 SW10G16   29.93R

CITY           SKY/WX    TMP DP  RH WIND       PRES   REMARKS
JACKSON        MOCLDY    58  54  86 S15       29.93S
LAMBERTVILLE   FAIR      58  55  92 S7        29.96R
LANSING        CLOUDY    56  54  93 S16G22    29.90S
LAPEER         CLOUDY    38  38  99 CALM      29.92S FOG
MASON          CLOUDY    57  51  81 SW8G17    29.92R
MT. CLEMENS    FAIR      55  55 100 SW10      29.93S
PONTIAC        CLOUDY    55  54  96 SW10      29.93S
PORT HOPE        N/A     34  33  96 SE7       29.94F WCI  28
PORT HURON     MOCLDY    50  48  93 SW3       29.95S FOG
TRI CITIES     LGT RAIN  35  34  96 NE7       29.92F FOG     WCI  29
MIDLAND        RAIN      37  37  99 E7        29.91F WCI  32
TROY           MOCLDY    55  53  93 SW10      29.96S
SAGINAW HB     LGT RAIN  34  34 100 N3        29.91F
$$
MIZ043>046-050>051-056>058-064>065-071>073-077>080-200500-
SOUTHWEST LOWER MICHIGAN

CITY           SKY/WX    TMP DP  RH WIND       PRES   REMARKS
BATTLE CREEK   LGT RAIN  54  53  97 S13       29.91S
BENTON HARBOR  LGT RAIN  59  55  87 S14G24    29.87S FOG
BIG RAPIDS     LGT SNOW  37  35  92 SE7       29.86S WCI  31
COLDWATER      CLOUDY    57  57  99 S8        29.93F
FREMONT        RAIN      39  37  92 E8        29.84F WCI  33
HOLLAND        CLOUDY    59  54  83 S18G26    29.84S
GRAND RAPIDS   CLOUDY    56  53  90 S15G22    29.85F
IONIA          FOG       39  39 100 SE6       29.87F VSB 1/2 WCI  34
KALAMAZOO      LGT RAIN  55  53  93 MISG      29.91S
LUDINGTON      CLOUDY    39  39 100 E6        29.81S WCI  34
MARSHALL       LGT RAIN  56  55  97 SW7       29.91F
MOUNT PLEASANT RAIN      37  36  95 E6        29.90F WCI  32
MUSKEGON       LGT RAIN  51  49  92 S17G26    29.82F
SOUTH HAVEN    LGT RAIN  59  56  90 S12G25    29.86R
$$
MIZ016>042-200500-
NORTHERN LOWER MICHIGAN

CITY           SKY/WX    TMP DP  RH WIND       PRES   REMARKS
ALPENA         LGT RAIN  34  34 100 E9        29.98S FOG     WCI  27
BEAVER ISLAND  MIX PCPN  32  31  96 E14G22    29.92S WCI  22
BELLAIRE       LGT RAIN  35  35  97 NE5       29.89F WCI  31
CADILLAC       LGT RAIN  34  34  99 E12       29.85F WCI  26
CHARLEVOIX     LGT RAIN  34  34 100 E13       29.92F WCI  25
FRANKFORT      RAIN      38  38  99 E9        29.83F WCI  32
GAYLORD        FRZ RAIN  32  32 100 E5        29.88F FOG     WCI  27
GRAYLING       MIX PCPN  32  32 100 E10       29.89F FOG     WCI  24
HARBOR SPRINGS LGT SNOW  33  32  98 E17G24    29.92F WCI  22
HOUGHTON LAKE  CLOUDY    34  33  96 E12       29.90F WCI  25
MANISTEE       LGT RAIN  37  36  96 E12       29.82S WCI  29
OSCODA         MIX PCPN  33  33  99 NE7       29.96S WCI  27
PELLSTON       LGT RAIN  33  32  96 E14G25    29.98R WCI  23
ROGERS CITY    CLOUDY    32  32  99 E12G20    30.00S FOG     WCI  23
TRAVERSE CITY  LGT RAIN  37  35  92 E7        29.86S FOG     WCI  32
$$
MIZ007>008-015-200500-
EASTERN UPPER MICHIGAN

CITY           SKY/WX    TMP DP  RH WIND       PRES   REMARKS
KINROSS        FLURRIES  21  18  88 E14       29.99F WCI   8
MACKINAC ISLAN CLOUDY    26  23  88 E16G28    29.97F WCI  14
NEWBERRY       CLOUDY    21  20  96 NE13      29.96F WCI   8
S. S. MARIE    LGT SNOW  20  12  71 E14G24    30.01F WCI   7
MUNISING         N/A     24  23  96 N12       29.97S WCI  13
$$
MIZ004>006-011>014-085-200500-
CENTRAL UPPER MICHIGAN

CITY           SKY/WX    TMP DP  RH WIND       PRES   REMARKS
MANISTIQUE     CLOUDY    27  25  94 NE9       29.93S WCI  18
ESCANABA       LGT SNOW  26  24  92 N10       29.93R FOG     WCI  16
MENOMINEE      LGT SNOW  29  27  92 NE13      29.88F FOG     WCI  19
SAWYER-GWINN   LGT SNOW  22  20  91 NE18      29.94F WCI   8
$$
MIZ001>003-009>011-084-200500-
WESTERN UPPER MICHIGAN

CITY           SKY/WX    TMP DP  RH WIND       PRES   REMARKS
IRON MOUNTAIN  FRZ RAIN  24  20  84 N7        29.89S FOG     WCI  16
HOUGHTON       FLURRIES  17  11  77 NE14      30.02F WCI   3
COPPER HARBOR    N/A     19  15  84 E9G20     30.09F WCI   8
IRONWOOD       LGT SNOW  16  13  88 NE7       29.98S FOG     WCI   6
$$

ABBREVIATIONS USED IN REMARKS
   TC - TEMPERATURE IN CELSIUS
  WCI - WIND CHILL INDEX
   HX - HEAT INDEX
  VSB - VISIBILITY





USA.gov is the U.S. government's official web portal to all federal, state and local government web resources and services.